Regional Weather Roundup
Issued by NWS

Home | Current Version | Previous Version | Graphics & Text | Print | Product List | Glossary On
Versions: 1 2 3 4 5 6 7 8 9 10 11 12 13 14 15 16 17 18 19 20 21 22 23 24 25 26 27 28 29 30 31 32 33 34 35 36 37 38 39 40 41 42 43 44 45 46 47 48 49 50
000
ASUS45 KBOU 200207
RWRCO

WEATHER ROUNDUP FOR COLORADO
NATIONAL WEATHER SERVICE DENVER/BOULDER CO
800 PM MDT SUN OCT 19 2014

NOTE: "FAIR" INDICATES FEW OR NO CLOUDS BELOW 12000 FEET WITH NO
SIGNIFICANT WEATHER AND/OR OBSTRUCTIONS TO VISIBILITY.

COZ001>005-013-030-031-200300-
...NORTHWEST COLORADO...

CITY           SKY/WX    TMP DP  RH WIND       PRES   REMARKS
CRAIG          CLEAR     48  34  58 CALM      30.15R
HAYDEN         CLEAR     54  28  37 SW8       30.15S
MEEKER         CLEAR     53  37  54 SW3       30.15R
MOUNT WERNER   NOT AVBL
STEAMBOAT SPGS CLEAR     52  29  41 SE3       30.17R
WALDEN         CLEAR     46  28  49 NE8       30.24S
$$

COZ006>008-011-200300-
...WEST CENTRAL VALLEYS...

CITY           SKY/WX    TMP DP  RH WIND       PRES   REMARKS
GRAND JUNCTION CLEAR     57  33  40 S3        30.05R
MONTROSE       CLEAR     57  42  57 SE9       30.14R
EAGLE          PTCLDY    59  36  41 E6        30.18R
RIFLE          PTCLDY    57  35  43 SW5       30.08R
DELTA          CLEAR     64  37  36 SE3       30.08R
NUCLA          PTCLDY    63  37  39 SW13G21   30.18R
$$

COZ017>023-064>068-200300-
...SOUTHWEST COLORADO...

CITY           SKY/WX    TMP DP  RH WIND       PRES   REMARKS
DURANGO        LGT RAIN  49  47  93 W9        30.26R
CORTEZ         CLOUDY    56  45  66 SE9       30.20R
PAGOSA SPRINGS LGT RAIN  47  46  94 NW7       30.28F
TELLURIDE      CLOUDY    49  37  64 S9G18     30.33R
WOLF CREEK PAS FOG       32  32 100 W7        30.46R VSB 1/4 WCI  26
$$

COZ009-010-012-014-032>034-037-058>063-200300-
...CENTRAL COLORADO...

CITY           SKY/WX    TMP DP  RH WIND       PRES   REMARKS
ASPEN          PTCLDY   N/A N/A N/A SE10      30.24R
BUENA VISTA    DRIZZLE   53  36  52 SW12G21   30.27R
COPPER MTN     PTCLDY    41  32  70 SE14      30.47S
BERTHOUD PASS  FAIR      32  30  93 SE17      30.52R WCI  21
COTTONWOOD PAS CLOUDY    50  32  50 CALM      30.38R
GUNNISON       PTCLDY    48  30  49 N6        30.25R
KREMMLING      CLEAR     52  30  43 SE6         N/A
LEADVILLE      CLOUDY    44  32  62 E3        30.36R
SALIDA         PTCLDY    53  35  50 CALM      30.32R
SUNLIGHT       PTCLDY    45  32  61 CALM      30.41R
WILKERSON PASS NOT AVBL
$$

COZ069>075-200300-
...SAN LUIS VALLEY/SANGRE DE CRISTO MOUNTAINS...

CITY           SKY/WX    TMP DP  RH WIND       PRES   REMARKS
ALAMOSA        MOCLDY    53  34  48 SE10      30.23R
LA VETA PASS   PTCLDY    43  32  65 NE7       30.39R
SAGUACHE       CLOUDY    55  34  44 NW7       30.26R
$$

COZ035-036-038>040-200300-
...NORTHERN COLORADO FRONT RANGE...

CITY           SKY/WX    TMP DP  RH WIND       PRES   REMARKS
DENVER INTL AP CLEAR     53  35  50 SE9       30.14R
DMNS CITY PARK   N/A     55  39  54 E2        30.13S
AURORA         PTCLDY    53  35  49 SE8       30.16R
FRONT RANGE AP CLEAR     55  37  50 SE7       30.16R
ERIE MUNI ARPT CLEAR     50  38  63 CALM      30.13R
BOULDER MUN AP CLEAR     61  34  36 SW3       30.13R
CENTENNIAL     PTCLDY    55  34  45 S8        30.17R
BROOMFIELD     PTCLDY    64  30  27 CALM      30.16R
FORT COLLINS   CLEAR     61  36  39 SE9       30.13R
LONGMONT       CLEAR     56  37  49 W3        30.14R
$$

COZ041-046-047-076>085-087-088-200300-
...PIKES PEAK/PALMER DIVIDE AND SOUTHERN FOOTHILLS...

CITY           SKY/WX    TMP DP  RH WIND       PRES   REMARKS
COLO. SPRINGS  PTCLDY    53  34  48 NE10      30.20R
A. F. ACADEMY  PTCLDY    54  31  42 N2        30.21R
ELLICOTT       NOT AVBL
FALCON         PTCLDY    51  32  47 N5        30.24R
FORT CARSON    MOCLDY    57  35  43 NW7       30.17R
LIMON          CLEAR     51  36  56 CALM      30.15R
MONUMENT HILL  CLEAR     48  32  53 SE6       30.23R
TRINIDAD       CLEAR     57  40  52 W12       30.16R
$$

COZ042>045-048>051-090-091-200300-
...NORTHEAST COLORADO...

CITY           SKY/WX    TMP DP  RH WIND       PRES   REMARKS
GREELEY ARPT   CLEAR     55  36  47 CALM      30.12R
AKRON          CLEAR     57  39  51 E7        30.11R
BURLINGTON     CLEAR     55  38  52 E8        30.10R
WRAY           CLEAR     59  36  42 MISG      30.08R
STERLING       CLEAR     55  41  58 CALM      30.08R
HOLYOKE        CLEAR     48  37  66 CALM      30.08R
FORT MORGAN    CLEAR     55  36  49 NE7       30.12R
$$

COZ086-089-092>099-200300-
...SOUTHEAST COLORADO...

CITY           SKY/WX    TMP DP  RH WIND       PRES   REMARKS
PUEBLO         CLOUDY    65  36  34 CALM      30.10R
LA JUNTA       CLEAR     63  41  44 SE6       30.07R
LAMAR          CLEAR     58  45  62 E7        30.04R
SPRINGFIELD      N/A     57  41  55 NE7       30.08R
$$



USA.gov is the U.S. government's official web portal to all federal, state and local government web resources and services.